Regional Weather Roundup
Issued by NWS

Home | Current Version | Previous Version | Graphics & Text | Print | Product List | Glossary On
Versions: 1 2 3 4 5 6 7 8 9 10 11 12 13 14 15 16 17 18 19 20 21 22 23 24 25 26 27 28 29 30 31 32 33 34 35 36 37 38 39 40 41 42 43 44 45 46 47 48 49 50
000
ASUS43 KBIS 281059
RWRND

NORTH DAKOTA REGIONAL WEATHER ROUNDUP
NATIONAL WEATHER SERVICE BISMARCK ND
500 AM CST FRI NOV 28 2014

NOTE: "FAIR" INDICATES FEW OR NO CLOUDS BELOW 12,000 FEET WITH NO
SIGNIFICANT WEATHER AND/OR OBSTRUCTIONS TO VISIBILITY.


NDZ001>003-009>011-017-281200-
NORTHWEST NORTH DAKOTA

CITY           SKY/WX    TMP DP  RH WIND       PRES   REMARKS
WILLISTON      MOCLDY    18  13  80 E8        29.73R WCI   8
MINOT          CLOUDY     8   3  80 E12       29.84F WCI  -7
MINOT AFB      CLOUDY     9   5  85 E13       29.84F WCI  -7
$$

NDZ018>021-031>035-040>046-281200-
SOUTHWEST NORTH DAKOTA

CITY           SKY/WX    TMP DP  RH WIND       PRES   REMARKS
BISMARCK       CLOUDY    10   6  84 E9        29.82F FOG     WCI  -3
GARRISON         N/A     11   8  88 E16       29.77F WCI  -6
HETTINGER ARPT CLOUDY    33  27  78 VRB5      29.67F
$$

NDZ004>008-012>016-024-026-027-054-281200-
NORTHEAST NORTH DAKOTA

CITY           SKY/WX    TMP DP  RH WIND       PRES   REMARKS
GRAND FORKS    CLOUDY    11   6  81 SE9       30.02R WCI  -2
GRND FRKS AFB  CLOUDY    10   7  85 SE8       30.01S WCI  -1
DEVILS LAKE    CLOUDY     9  -2  61 SE12      29.91F WCI  -6
$$

NDZ022-023-025-028>030-036>039-047>053-281200-
SOUTHEAST NORTH DAKOTA

CITY           SKY/WX    TMP DP  RH WIND       PRES   REMARKS
FARGO          CLOUDY    13   6  74 SE8       30.00F WCI   2
$$



USA.gov is the U.S. government's official web portal to all federal, state and local government web resources and services.